Regional Weather Roundup
Issued by NWS Portland, ME

Home | Current Version | Previous Version | Text Only | Print | Product List | Glossary On
Versions: 1 2 3 4 5 6 7 8 9 10 11 12 13 14 15 16 17 18 19 20 21 22 23 24 25 26 27 28 29 30 31 32 33 34 35 36 37 38 39 40 41 42 43 44 45 46 47 48 49 50
000
ASUS41 KGYX 031110
RWRGYX
WEATHER ROUNDUP FOR MAINE AND NEW HAMPSHIRE
NATIONAL WEATHER SERVICE GRAY ME
700 AM EDT TUE AUG 03 2021

MEZ002-005-006-010-012-015-018-020-021-024-026-027-029-031200-
MAINE

CITY           SKY/WX    TMP DP  RH WIND       PRES   REMARKS
PORTLAND       MOSUNNY   57  53  86 W5        30.10R
SANFORD        SUNNY     54  53  97 CALM      30.11R
BAR HARBOR     SUNNY     60  56  86 CALM      30.07S
WISCASSET      SUNNY     55  54  96 CALM      30.10S
ROCKLAND       SUNNY     57  55  93 W3        30.09R
FRYEBURG       SUNNY     54  50  86 CALM      30.10S
LEWISTONAUBURN SUNNY     53  52  96 CALM      30.09S
AUGUSTA        SUNNY     61  53  75 CALM      30.09R
WATERVILLE     SUNNY     54  53  97 SW3       30.06R
BANGOR         SUNNY     58  54  86 S3        30.06S
GREENVILLE       N/A     56  48  74 VRB3      30.03S
MILLINOCKET    SUNNY     57  51  80 CALM      30.04R
HOULTON        SUNNY     55  50  83 S9        29.99R
PRESQUE ISLE   SUNNY     55  51  86 S6        29.96S
FRENCHVILLE    MOSUNNY   54  47  77 SW3       29.91S
CARIBOU        SUNNY     55  49  80 SW7       29.94S
$$

NHZ002-005-008-009-011-012-014-031200-
NEW HAMPSHIRE

CITY           SKY/WX    TMP DP  RH WIND       PRES   REMARKS
PORTSMOUTH     MOSUNNY   60  54  81 CALM      30.11S
ROCHESTER      SUNNY     56  53  90 NW5       30.10S
NASHUA         MOSUNNY   56  56 100 CALM      30.12S
MANCHESTER     MOSUNNY   59  54  83 CALM      30.10R
CONCORD        MOSUNNY   54  51  90 CALM      30.12S
PLYMOUTH       FOG       49  48  98 CALM      30.12S VSB 1/4
LACONIA        MOSUNNY   56  56 100 SW8       30.12R
BERLIN         FOG       46  45  96 CALM      30.11S VSB 1/4
WHITEFIELD     SUNNY     45  44  97 CALM      30.11S
JAFFREY        MOSUNNY   51  32  48 CALM      30.14R
KEENE          FOG       52  52 100 CALM      30.15R VSB 1/2
LEBANON        FOG       52  50  93 CALM      30.12S VSB 1/4
MT WASHINGTON  MOSUNNY   40  39  97 NW30        N/A
$$

VTZ005-007-008-031200-
VERMONT

CITY           SKY/WX    TMP DP  RH WIND       PRES   REMARKS
ST JOHNSBURY     N/A     49  48  97 MISG      30.10R
MONTPELIER     FOG       50  49  96 CALM      30.14S VSB 3/4
BURLINGTON     MOSUNNY   60  51  72 S8        30.08R
$$

MAZ007-012-024-CTZ003-RIZ002-NYZ038-NYZ072-031200-
SOUTHERN NEW ENGLAND AND NY

CITY           SKY/WX    TMP DP  RH WIND       PRES   REMARKS
BOSTON         PTSUNNY   68  56  65 CALM      30.11R
WORCESTER      PTSUNNY   64  47  53 N3        30.13S
NANTUCKET      PTSUNNY   69  67  93 CALM      30.10S
PROVIDENCE     PTSUNNY   62  57  83 W3        30.12R
HARTFORD       PTSUNNY   57  53  86 CALM      30.13R
ALBANY         MOSUNNY   52  52 100 CALM      30.14R
NEW YORK CITY  CLOUDY    68  54  60 CALM      30.12R
$$

ANZ081-ANZ082-ANZ150-NHZ014-MEZ023>029-031200-
COASTAL MARINE OBSERVATIONS

STATION/POSITION TIME  TEMP    WIND        PRES    WAVE
                       AIR SEA DIR/SP/G            HT/PER
                 (UTC) (F)     (DEG/KT/KT) (MB)    (FT/S)
MOUNT DESERT ROC 1100          220/ 10/ 10 1018.5R
ISLE OF SHOALS   1000   62     290/  5/  6 1018.6R
JEFFREYS LEDGE   1026      65                N/A     3/ 8
CASHES LEDGE BUO 1050   64 62  230/  2/  2 1019.7R   3/ 9
GEORGES BANK BUO 1050   63 61   CALM  /  2 1021.0R   6/ 9
$$

.............KEY..............
   WCI - WIND CHILL
   TC  - TEMPERATURE IN CELSIUS
   VSB - VISIBILITY IN MILES
   HX  - HEAT INDEX
   FAIR- INDICATES FEW OR NO CLOUDS BELOW 12,000 FT, WITH NO
         SIGNIFICANT WEATHER AND/OR OBSTRUCTIONS TO VISIBILITY.





USA.gov is the U.S. government's official web portal to all federal, state and local government web resources and services.